CW9688 Weather Reports


Display with metric or nautical units.
time (UTC)temp
F
wind
direction
speed
MPH
gust
MPH
rain 1hr
in
rain 24hr
in
rain mn
in
humidity
%
barometer
mb
20260905091304 65 215 0.0 1.0 0.00 0.00 0.00 51 998.4
20260905085306 67 215 1.0 2.0 0.00 0.00 0.00 49 998.2
20260905084804 67 215 0.0 2.0 0.00 0.00 0.00 49 998.1
20260905083304 67 205 1.0 2.0 0.00 0.00 0.00 48 998.0
20260905082804 67 201 1.0 1.0 0.00 0.00 0.00 47 997.9
20260905082307 68 201 1.0 3.0 0.00 0.00 0.00 47 997.9
20260905081804 69 202 2.0 3.0 0.00 0.00 0.00 46 997.9
20260905081304 69 180 2.0 5.0 0.00 0.00 0.00 46 997.9
20260905080304 69 187 3.0 3.0 0.00 0.00 0.00 46 997.8
20260905075804 69 209 2.0 3.0 0.00 0.00 0.00 46 997.8
20260905075306 69 203 2.0 5.0 0.00 0.00 0.00 47 997.9
20260905074804 68 202 3.0 5.0 0.00 0.00 0.00 49 997.9
20260905073304 68 217 2.0 3.0 0.00 0.00 0.00 51 997.9
20260905072803 68 197 2.0 3.0 0.00 0.00 0.00 51 998.0
20260905072306 68 156 0.0 3.0 0.00 0.00 0.00 51 997.9
20260905064804 69 180 1.0 2.0 0.00 0.00 0.00 50 997.8
20260905063304 69 180 0.0 0.0 0.00 0.00 0.00 51 997.8
20260905060304 70 174 1.0 2.0 0.00 0.00 0.00 48 997.5
20260905055306 71 174 0.0 0.0 0.00 0.00 0.00 46 997.5
20260905054804 72 174 0.0 2.0 0.00 0.00 0.00 46 997.6
20260905053804 73 174 0.0 2.0 0.00 0.00 0.00 44 997.5
20260905053304 74 174 2.0 3.0 0.00 0.00 0.00 43 997.5
20260905052804 74 152 2.0 6.0 0.00 0.00 0.00 42 997.5
20260905052306 74 121 3.0 5.0 0.00 0.00 0.00 42 997.5
20260905051304 73 117 2.0 5.0 0.00 0.00 0.00 42 997.6
20260905050304 72 157 0.0 3.0 0.00 0.00 0.00 42 997.7
20260905045305 73 142 1.0 2.0 0.00 0.00 0.00 42 997.8
20260905044804 73 253 0.0 1.0 0.00 0.00 0.00 41 997.7
20260905044304 73 253 0.0 2.0 0.00 0.00 0.00 40 997.7
20260905043805 74 253 1.0 2.0 0.00 0.00 0.00 40 997.6
20260905042804 75 208 0.0 0.0 0.00 0.00 0.00 38 997.6
20260905041304 77 208 1.0 3.0 0.00 0.00 0.00 35 997.7
20260905040804 77 195 2.0 5.0 0.00 0.00 0.00 35 997.7
20260905035306 77 119 2.0 7.0 0.00 0.00 0.00 35 997.8
20260905034303 76 106 1.0 6.0 0.00 0.00 0.00 35 997.8
20260905033304 77 63 0.0 2.0 0.00 0.00 0.00 34 997.7
20260905032306 78 63 1.0 2.0 0.00 0.00 0.00 33 997.6
20260905031804 78 42 1.0 5.0 0.00 0.00 0.00 33 997.6
20260905031304 78 28 2.0 3.0 0.00 0.00 0.00 33 997.5
20260905025306 80 41 2.0 6.0 0.00 0.00 0.00 30 997.5
20260905024804 80 48 3.0 7.0 0.00 0.00 0.00 30 997.4
20260905023804 80 61 2.0 5.0 0.00 0.00 0.00 31 997.2
20260905023304 81 31 2.0 3.0 0.00 0.00 0.00 30 997.1
20260905022306 82 59 2.0 3.0 0.00 0.00 0.00 29 997.1
20260905020804 82 50 1.0 3.0 0.00 0.00 0.00 29 997.1
20260905015803 83 42 1.0 3.0 0.00 0.00 0.00 28 997.0
20260905014803 84 41 1.0 3.0 0.00 0.00 0.00 27 996.9
20260905013804 85 67 3.0 6.0 0.00 0.00 0.00 26 996.9
20260905013304 85 70 3.0 8.0 0.00 0.00 0.00 26 996.9
20260905011804 85 74 3.0 7.0 0.00 0.00 0.00 25 996.6
20260905011304 86 67 3.0 6.0 0.00 0.00 0.00 25 996.6
20260905010804 86 61 3.0 6.0 0.00 0.00 0.00 25 996.5
20260905005804 87 87 3.0 8.0 0.00 0.00 0.00 25 996.4
20260905004804 87 64 4.0 8.0 0.00 0.00 0.00 24 996.6
20260905004304 88 82 4.0 14.0 0.00 0.00 0.00 24 996.6
20260905003804 88 94 6.0 12.0 0.00 0.00 0.00 24 996.7
20260905002306 89 94 6.0 13.0 0.00 0.00 0.00 24 996.5
20260905001304 89 99 5.0 12.0 0.00 0.00 0.00 23 996.4
20260904235804 90 86 6.0 12.0 0.00 0.00 0.00 23 996.2
20260904235306 90 93 4.0 14.0 0.00 0.00 0.00 23 996.2
20260904233804 90 74 9.0 14.0 0.00 0.00 0.00 22 996.1
20260904233303 91 63 6.0 12.0 0.00 0.00 0.00 22 996.1
20260904232804 91 82 9.0 17.0 0.00 0.00 0.00 21 996.1
20260904230804 91 73 6.0 12.0 0.00 0.00 0.00 21 996.0
20260904225305 92 73 6.0 12.0 0.00 0.00 0.00 21 996.0
20260904223304 92 76 5.0 18.0 0.00 0.00 0.00 20 996.0
20260904222804 91 87 8.0 18.0 0.00 0.00 0.00 20 996.0
20260904222306 92 73 8.0 14.0 0.00 0.00 0.00 19 996.0
20260904221804 92 60 5.0 12.0 0.00 0.00 0.00 19 996.1
20260904221304 93 71 5.0 12.0 0.00 0.00 0.00 19 996.1
20260904220304 93 89 5.0 9.0 0.00 0.00 0.00 17 996.2
20260904214804 92 59 6.0 12.0 0.00 0.00 0.00 17 996.1
20260904214303 93 82 6.0 12.0 0.00 0.00 0.00 18 996.2
20260904213304 92 68 7.0 12.0 0.00 0.00 0.00 17 996.5
20260904212306 93 86 6.0 12.0 0.00 0.00 0.00 17 996.5
20260904211803 91 73 4.0 15.0 0.00 0.00 0.00 18 996.5
20260904211304 91 58 1.0 9.0 0.00 0.00 0.00 17 996.5
20260904210803 91 88 5.0 10.0 0.00 0.00 0.00 19 996.7
20260904205305 91 75 6.0 12.0 0.00 0.00 0.00 18 996.8
20260904204804 91 73 7.0 13.0 0.00 0.00 0.00 19 997.1
20260904204303 91 101 8.0 12.0 0.00 0.00 0.00 20 997.1
20260904203804 91 119 7.0 13.0 0.00 0.00 0.00 20 997.1
20260904202306 92 127 7.0 14.0 0.00 0.00 0.00 22 997.6
20260904201804 91 100 8.0 16.0 0.00 0.00 0.00 22 997.6
20260904200804 91 78 9.0 14.0 0.00 0.00 0.00 20 997.8
20260904200304 91 118 5.0 9.0 0.00 0.00 0.00 21 997.8
20260904195804 91 107 10.0 16.0 0.00 0.00 0.00 21 998.1
20260904194303 91 97 7.0 14.0 0.00 0.00 0.00 21 998.1
20260904193803 91 145 8.0 14.0 0.00 0.00 0.00 19 998.1
20260904192803 91 105 6.0 13.0 0.00 0.00 0.00 21 998.2
20260904192306 92 114 9.0 12.0 0.00 0.00 0.00 19 998.4
20260904191803 91 94 6.0 14.0 0.00 0.00 0.00 18 998.3
20260904191304 91 102 9.0 15.0 0.00 0.00 0.00 18 998.3
20260904190304 91 65 6.0 14.0 0.00 0.00 0.00 20 998.5
20260904185306 91 172 10.0 18.0 0.00 0.00 0.00 18 998.7
20260904184803 91 167 8.0 13.0 0.00 0.00 0.00 20 998.6
20260904183804 90 207 6.0 12.0 0.00 0.00 0.00 19 998.6
20260904183304 88 153 6.0 15.0 0.00 0.00 0.00 20 998.7
20260904182306 88 94 6.0 12.0 0.00 0.00 0.00 22 998.9
20260904181304 89 153 8.0 15.0 0.00 0.00 0.00 21 999.0
20260904180804 90 167 7.0 12.0 0.00 0.00 0.00 21 999.0
20260904180304 89 114 7.0 13.0 0.00 0.00 0.00 23 999.1
20260904175804 89 151 6.0 9.0 0.00 0.00 0.00 22 999.1
20260904175305 89 123 6.0 12.0 0.00 0.00 0.00 22 999.1
20260904173304 88 177 6.0 10.0 0.00 0.00 0.00 23 999.3
20260904171303 86 151 4.0 12.0 0.00 0.00 0.00 26 999.4
20260904165305 84 162 6.0 10.0 0.00 0.00 0.00 26 999.6
20260904164803 84 166 6.0 10.0 0.00 0.00 0.00 28 999.6
20260904163804 82 156 5.0 8.0 0.00 0.00 0.00 27 999.6
20260904163305 82 174 6.0 9.0 0.00 0.00 0.00 28 999.6
20260904162306 81 139 5.0 9.0 0.00 0.00 0.00 29 999.8
20260904161804 80 161 6.0 10.0 0.00 0.00 0.00 28 999.8
20260904160804 79 172 6.0 12.0 0.00 0.00 0.00 29 999.9
20260904160304 79 177 6.0 10.0 0.00 0.00 0.00 29 999.9
20260904154804 77 154 5.0 9.0 0.00 0.00 0.00 31 999.8
20260904154304 76 176 6.0 12.0 0.00 0.00 0.00 32 999.8
20260904153804 76 152 6.0 10.0 0.00 0.00 0.00 34 999.7
20260904153304 75 161 7.0 14.0 0.00 0.00 0.00 33 999.7
20260904152804 75 151 5.0 12.0 0.00 0.00 0.00 33 999.7
20260904152306 75 161 7.0 13.0 0.00 0.00 0.00 36 999.7
20260904151804 74 132 6.0 9.0 0.00 0.00 0.00 35 999.7
20260904151303 74 147 4.0 7.0 0.00 0.00 0.00 38 999.8
20260904150304 73 162 3.0 6.0 0.00 0.00 0.00 38 999.8
20260904145804 72 179 6.0 8.0 0.00 0.00 0.00 37 999.8
20260904144804 71 165 4.0 7.0 0.00 0.00 0.00 38 999.8
20260904142306 69 169 3.0 5.0 0.00 0.00 0.00 47 999.6
20260904141804 68 207 3.0 6.0 0.00 0.00 0.00 47 999.6
20260904141305 67 168 3.0 5.0 0.00 0.00 0.00 50 999.7
20260904140804 67 150 1.0 3.0 0.00 0.00 0.00 51 999.7
20260904140305 66 168 2.0 5.0 0.00 0.00 0.00 52 999.5
20260904135306 65 183 2.0 3.0 0.00 0.00 0.00 52 999.3
20260904133804 64 165 3.0 7.0 0.00 0.00 0.00 53 999.3
20260904133305 63 192 3.0 5.0 0.00 0.00 0.00 54 999.2
20260904132306 62 172 2.0 6.0 0.00 0.00 0.00 60 999.2
20260904131805 60 159 0.0 2.0 0.00 0.00 0.00 63 999.2
20260904130805 60 193 0.0 2.0 0.00 0.00 0.00 64 999.2
20260904130304 59 193 1.0 2.0 0.00 0.00 0.00 65 999.1
20260904125306 59 193 0.0 0.0 0.00 0.00 0.00 65 998.8
20260904123805 59 193 1.0 3.0 0.00 0.00 0.00 65 998.7
20260904123304 59 193 2.0 2.0 0.00 0.00 0.00 66 998.6
20260904121805 59 200 1.0 2.0 0.00 0.00 0.00 65 998.6
20260904120305 60 200 1.0 2.0 0.00 0.00 0.00 62 998.4
20260904113805 59 199 1.0 3.0 0.00 0.00 0.00 65 998.3
20260904112805 59 225 2.0 3.0 0.00 0.00 0.00 66 998.2
20260904111805 59 242 2.0 3.0 0.00 0.00 0.00 65 998.2
20260904111305 59 242 0.0 2.0 0.00 0.00 0.00 64 998.0
20260904110805 59 242 1.0 2.0 0.00 0.00 0.00 64 997.9
20260904105805 60 242 1.0 2.0 0.00 0.00 0.00 62 998.0
20260904104305 61 242 0.0 0.0 0.00 0.00 0.00 59 997.9
20260904103305 61 242 1.0 2.0 0.00 0.00 0.00 58 997.7
20260904102306 62 242 1.0 2.0 0.00 0.00 0.00 56 997.6
20260904101804 62 242 1.0 2.0 0.00 0.00 0.00 56 997.6
20260904101304 63 242 0.0 1.0 0.00 0.00 0.00 55 997.4
20260904100805 62 242 1.0 2.0 0.00 0.00 0.00 55 997.4
20260904095805 61 252 0.0 2.0 0.00 0.00 0.00 57 997.4
20260904093305 62 252 0.0 2.0 0.00 0.00 0.00 55 997.3
20260904092805 62 252 1.0 2.0 0.00 0.00 0.00 55 997.3